Location: Calvatone
(45.1167°N, 10.4333°E)
Time: 16:19:32
(UTC+00:00)

SL-08 ROCKET BODY - Pass Details

Date: 28 January 2023
Orbit: 896 x 962 km, 83.0° (Epoch: 30 March)

Event Time Altitude Azimuth Distance (km) Brightness Sun altitude
Rises 18:05:38 0° 352° (N) 3,561 7.5 -18.7°
Reaches altitude 10° 18:08:07 10° 353° (N) 2,607 6.7 -19.1°
Maximum altitude 18:14:03 84° 82° (E) 912 4.2 -20.2°
Drops below altitude 10° 18:19:54 10° 171° (S) 2,564 6.7 -21.2°
Sets 18:22:19 0° 172° (S) 3,499 7.4 -21.6°
